Hebron, NE

1:16 AM CDT on March 26, 2017 (GMT -0500)
Hebron Municipal

Weather History for KHJH - March, 2013

Change the Weather History Date:

Wednesday, March 27, 2013

  Actual Average Record
Temperature  
Mean Temperature 44 °F -  
Max Temperature 56 °F 58 °F 84 °F (1989)
Min Temperature 31 °F 33 °F 4 °F (1965)
Degree Days  
Heating Degree Days 22    
Moisture  
Dew Point 25 °F    
Average Humidity 53    
Maximum Humidity 75    
Minimum Humidity 28    
Precipitation  
Precipitation 0.00 in - - ()
Sea Level Pressure  
Sea Level Pressure 30.16 in    
Wind  
Wind Speed 7 mph (SE)    
Max Wind Speed 14 mph    
Max Gust Speed 18 mph    
Visibility 10 miles    
Events      
Averages and records for this station are not official NWS values.
T = Trace of Precipitation, MM = Missing Value Source: NWS Daily Summary

Daily Weather History Graph

Daily Weather History Graph

Search for Another Location

Airport or City:

Trip Planner

Search our weather history database for the weather conditions in past years. The results will help you decide how hot, cold, wet, or windy it might be!

Date:

Astronomy

Mar. 27, 2013 Rise Set
Actual Time 7:21 AM CDT 7:49 PM CDT
Civil Twilight 6:54 AM CDT 8:17 PM CDT
Nautical Twilight 6:22 AM CDT 8:49 PM CDT
Astronomical Twilight 5:49 AM CDT 9:22 PM CDT
Moon 8:35 PM CDT (3/27) 7:13 AM CDT (3/27)
Length of Visible Light 13h 22m
Length of Day
12h 28m
Full, 100% of the Moon is Illuminated
Mar 27
Full
Apr 2
Last Quarter
Apr 10
New
Apr 18
First Quarter
Apr 25
Full

Hourly Weather History & Observations

Time (CDT) Temp. Windchill Dew Point Humidity Pressure Visibility Wind Dir Wind Speed Gust Speed Precip Events Conditions
12:15 AM 33.3 °F 27.1 °F 23.5 °F 68% 30.21 in 10.0 mi SE 6.9 mph - N/A   Mostly Cloudy
12:35 AM 33.6 °F 26.2 °F 23.5 °F 67% 30.21 in 10.0 mi SSE 9.2 mph - N/A   Overcast
12:55 AM 33.8 °F 26.4 °F 23.7 °F 67% 30.21 in 10.0 mi SE 9.2 mph - N/A   Overcast
1:15 AM 33.8 °F 26.4 °F 23.7 °F 67% 30.21 in 10.0 mi SSE 9.2 mph - N/A   Overcast
1:35 AM 33.8 °F 28.6 °F 23.7 °F 67% 30.21 in 10.0 mi SE 5.8 mph - N/A   Overcast
1:55 AM 33.8 °F 27.0 °F 23.5 °F 66% 30.21 in 10.0 mi SE 8.1 mph - N/A   Overcast
2:15 AM 33.8 °F 26.4 °F 23.7 °F 67% 30.20 in 10.0 mi SSE 9.2 mph - N/A   Overcast
2:35 AM 34.2 °F 25.7 °F 23.4 °F 65% 30.19 in 10.0 mi SSE 11.5 mph - N/A   Overcast
2:55 AM 33.8 °F 24.8 °F 23.5 °F 66% 30.18 in 10.0 mi SSE 12.7 mph - N/A   Overcast
3:15 AM 34.0 °F 25.0 °F 23.0 °F 64% 30.18 in 10.0 mi SSE 12.7 mph - N/A   Overcast
3:55 AM 33.8 °F 25.8 °F 22.8 °F 64% 30.17 in 10.0 mi SE 10.4 mph - N/A   Overcast
4:15 AM 33.8 °F 25.8 °F 22.6 °F 64% 30.16 in 10.0 mi SE 10.4 mph - N/A   Mostly Cloudy
4:35 AM 32.9 °F 25.3 °F 23.0 °F 67% 30.15 in 10.0 mi SE 9.2 mph - N/A   Mostly Cloudy
4:55 AM 32.2 °F 25.0 °F 23.0 °F 69% 30.14 in 10.0 mi SE 8.1 mph - N/A   Mostly Cloudy
5:15 AM 32.2 °F 27.7 °F 23.0 °F 69% 30.14 in 10.0 mi ESE 4.6 mph - N/A   Scattered Clouds
5:35 AM 32.2 °F 25.8 °F 23.2 °F 69% 30.15 in 10.0 mi ESE 6.9 mph - N/A   Mostly Cloudy
5:55 AM 33.8 °F 27.7 °F 23.0 °F 65% 30.14 in 10.0 mi ESE 6.9 mph - N/A   Mostly Cloudy
6:15 AM 32.9 °F 27.5 °F 23.4 °F 68% 30.14 in 10.0 mi East 5.8 mph - N/A   Overcast
6:35 AM 32.0 °F 25.6 °F 23.4 °F 70% 30.14 in 10.0 mi East 6.9 mph - N/A   Scattered Clouds
6:55 AM 32.0 °F 26.4 °F 23.5 °F 71% 30.14 in 10.0 mi East 5.8 mph - N/A   Scattered Clouds
7:15 AM 32.0 °F 25.6 °F 23.7 °F 71% 30.14 in 10.0 mi ESE 6.9 mph - N/A   Overcast
7:35 AM 31.6 °F 25.1 °F 23.7 °F 73% 30.14 in 10.0 mi East 6.9 mph - N/A   Overcast
7:55 AM 31.8 °F 26.2 °F 24.1 °F 73% 30.15 in 10.0 mi East 5.8 mph - N/A   Overcast
8:15 AM 32.0 °F 25.6 °F 24.1 °F 73% 30.15 in 10.0 mi East 6.9 mph - N/A   Overcast
8:35 AM 33.3 °F 27.1 °F 24.6 °F 71% 30.15 in 10.0 mi ESE 6.9 mph - N/A   Overcast
8:55 AM 34.2 °F 29.0 °F 24.8 °F 69% 30.15 in 10.0 mi ESE 5.8 mph - N/A   Overcast
9:15 AM 35.1 °F 29.3 °F 25.2 °F 67% 30.16 in 10.0 mi ESE 6.9 mph - N/A   Overcast
9:35 AM 36.5 °F 32.7 °F 25.5 °F 64% 30.16 in 10.0 mi East 4.6 mph - N/A   Overcast
9:55 AM 37.8 °F 34.2 °F 25.7 °F 62% 30.16 in 10.0 mi East 4.6 mph - N/A   Overcast
10:15 AM 39.6 °F 35.4 °F 25.7 °F 58% 30.17 in 10.0 mi East 5.8 mph - N/A   Mostly Cloudy
10:35 AM 44.2 °F 41.0 °F 25.5 °F 48% 30.16 in 10.0 mi East 5.8 mph - N/A   Scattered Clouds
10:55 AM 47.5 °F - 23.2 °F 38% 30.17 in 10.0 mi SSE 11.5 mph - N/A   Clear
11:15 AM 48.0 °F - 23.4 °F 38% 30.17 in 10.0 mi South 13.8 mph - N/A   Clear
11:35 AM 48.7 °F - 23.4 °F 37% 30.16 in 10.0 mi SSE 10.4 mph 18.4 mph N/A   Clear
11:55 AM 49.3 °F - 23.4 °F 36% 30.16 in 10.0 mi SSE 10.4 mph 17.3 mph N/A   Clear
12:15 PM 50.0 °F - 23.2 °F 35% 30.16 in 10.0 mi SSE 6.9 mph - N/A   Clear
12:35 PM 50.5 °F - 23.7 °F 35% 30.16 in 10.0 mi South 5.8 mph - N/A   Clear
12:55 PM 52.0 °F - 24.3 °F 34% 30.15 in 10.0 mi South 6.9 mph - N/A   Clear
1:15 PM 51.1 °F - 23.7 °F 34% 30.15 in 10.0 mi SSW 6.9 mph - N/A   Clear
1:35 PM 51.8 °F - 23.0 °F 33% 30.14 in 10.0 mi Calm Calm - N/A   Clear
1:55 PM 53.1 °F - 24.1 °F 32% 30.14 in 10.0 mi SE 5.8 mph - N/A   Clear
2:15 PM 53.8 °F - 23.7 °F 31% 30.13 in 10.0 mi East 8.1 mph - N/A   Clear
2:35 PM 53.4 °F - 22.8 °F 30% 30.13 in 10.0 mi ENE 3.5 mph - N/A   Clear
2:55 PM 54.7 °F - 23.5 °F 30% 30.12 in 10.0 mi East 6.9 mph - N/A   Clear
3:15 PM 54.7 °F - 23.4 °F 30% 30.12 in 10.0 mi ESE 4.6 mph - N/A   Clear
3:35 PM 55.0 °F - 23.5 °F 30% 30.12 in 10.0 mi SE 10.4 mph - N/A   Clear
3:55 PM 54.9 °F - 22.5 °F 28% 30.12 in 10.0 mi ESE 5.8 mph - N/A   Clear
4:15 PM 54.7 °F - 22.8 °F 29% 30.12 in 10.0 mi Calm Calm - N/A   Clear
4:35 PM 55.8 °F - 23.4 °F 29% 30.12 in 10.0 mi SE 4.6 mph - N/A   Clear
4:55 PM 56.1 °F - 23.0 °F 28% 30.11 in 10.0 mi East 5.8 mph - N/A   Clear
5:15 PM 55.6 °F - 23.0 °F 28% 30.12 in 10.0 mi SE 4.6 mph - N/A   Clear
5:35 PM 55.9 °F - 23.7 °F 29% 30.12 in 10.0 mi East 5.8 mph - N/A   Clear
5:55 PM 56.3 °F - 24.4 °F 29% 30.12 in 10.0 mi SSE 5.8 mph - N/A   Clear
6:15 PM 56.1 °F - 25.3 °F 31% 30.12 in 10.0 mi ESE 6.9 mph - N/A   Clear
6:35 PM 55.6 °F - 25.9 °F 32% 30.13 in 10.0 mi SE 5.8 mph - N/A   Clear
6:55 PM 54.7 °F - 25.7 °F 33% 30.13 in 10.0 mi East 6.9 mph - N/A   Clear
7:15 PM 53.8 °F - 26.4 °F 35% 30.14 in 10.0 mi ESE 4.6 mph - N/A   Clear
7:35 PM 51.8 °F - 27.3 °F 39% 30.14 in 10.0 mi East 3.5 mph - N/A   Clear
7:55 PM 50.0 °F - 28.0 °F 43% 30.15 in 10.0 mi ESE 3.5 mph - N/A   Clear
8:15 PM 46.4 °F 45.2 °F 27.3 °F 47% 30.15 in 10.0 mi ESE 3.5 mph - N/A   Clear
8:35 PM 43.3 °F - 27.9 °F 54% 30.15 in 10.0 mi Calm Calm - N/A   Clear
8:55 PM 42.6 °F - 27.5 °F 55% 30.16 in 10.0 mi Calm Calm - N/A   Clear
9:15 PM 41.4 °F - 27.5 °F 58% 30.17 in 10.0 mi Calm Calm - N/A   Clear
9:35 PM 40.3 °F - 28.0 °F 62% 30.18 in 10.0 mi Calm Calm - N/A   Clear
9:55 PM 39.0 °F 35.7 °F 28.4 °F 66% 30.18 in 10.0 mi SSE 4.6 mph - N/A   Clear
10:15 PM 40.5 °F - 28.8 °F 63% 30.20 in 10.0 mi Calm Calm - N/A   Clear
10:35 PM 40.3 °F - 29.1 °F 64% 30.20 in 10.0 mi Calm Calm - N/A   Clear
10:55 PM 38.7 °F - 28.8 °F 68% 30.20 in 10.0 mi Calm Calm - N/A   Clear
11:15 PM 36.3 °F 31.6 °F 29.1 °F 75% 30.21 in 10.0 mi SSE 5.8 mph - N/A   Clear
11:35 PM 37.6 °F 31.6 °F 29.5 °F 73% 30.21 in 10.0 mi SSE 8.1 mph - N/A   Clear
11:55 PM 36.5 °F - 28.9 °F 74% 30.21 in 10.0 mi Calm Calm - N/A   Clear